| time (UTC) | temp F | wind direction | speed MPH | gust MPH | rain 1hr in | rain 24hr in | rain mn in | humidity % | barometer mb |
| 20260505003018 | 56 | 105 | 1.0 | 6.0 | 0.05 | 0.07 | 0.07 | 89 | 1020.8 |
| 20260505001518 | 57 | 105 | 0.0 | 4.0 | 0.05 | 0.06 | 0.06 | 88 | 1020.8 |
| 20260505000032 | 57 | 106 | 0.0 | 7.0 | 0.04 | 0.04 | 0.04 | 88 | 1020.7 |
| 20260504234517 | 57 | 107 | 0.0 | 7.0 | 0.04 | 0.04 | 0.04 | 87 | 1020.6 |
| 20260504233016 | 58 | 107 | 1.0 | 7.0 | 0.02 | 0.02 | 0.02 | 86 | 1020.7 |
| 20260504231515 | 59 | 119 | 0.0 | 7.0 | 0.01 | 0.01 | 0.01 | 83 | 1020.7 |
| 20260504230015 | 60 | 129 | 1.0 | 5.0 | 0.00 | 0.00 | 0.00 | 80 | 1020.8 |
| 20260504224514 | 61 | 131 | 1.0 | 3.0 | 0.00 | 0.00 | 0.00 | 75 | 1020.9 |
| 20260504223014 | 61 | 131 | 0.0 | 0.0 | 0.00 | 0.00 | 0.00 | 68 | 1021.0 |
| 20260504221534 | 61 | 131 | 0.0 | 0.0 | 0.00 | 0.00 | 0.00 | 65 | 1021.0 |
| 20260504220014 | 62 | 131 | 0.0 | 0.0 | 0.00 | 0.00 | 0.00 | 65 | 1021.0 |
| 20260504214513 | 62 | 131 | 0.0 | 0.0 | 0.00 | 0.00 | 0.00 | 64 | 1021.1 |
| 20260504213012 | 62 | 131 | 0.0 | 0.0 | 0.00 | 0.00 | 0.00 | 66 | 1021.1 |
| 20260504211511 | 62 | 131 | 0.0 | 0.0 | 0.00 | 0.00 | 0.00 | 67 | 1021.2 |
| 20260504210009 | 62 | 131 | 0.0 | 3.0 | 0.00 | 0.00 | 0.00 | 69 | 1021.1 |
| 20260504204505 | 61 | 131 | 0.0 | 4.0 | 0.00 | 0.00 | 0.00 | 72 | 1021.0 |
| 20260504203002 | 60 | 131 | 1.0 | 4.0 | 0.00 | 0.00 | 0.00 | 74 | 1021.1 |
| 20260504201600 | 60 | 131 | 0.0 | 3.0 | 0.00 | 0.00 | 0.00 | 75 | 1021.1 |
| 20260504200100 | 60 | 131 | 1.0 | 4.0 | 0.00 | 0.00 | 0.00 | 75 | 1021.2 |
| 20260504194600 | 60 | 131 | 0.0 | 4.0 | 0.00 | 0.00 | 0.00 | 75 | 1021.4 |
| 20260504193100 | 59 | 133 | 1.0 | 5.0 | 0.00 | 0.00 | 0.00 | 77 | 1021.2 |
| 20260504191556 | 59 | 133 | 0.0 | 4.0 | 0.00 | 0.00 | 0.00 | 78 | 1021.4 |
| 20260504190053 | 59 | 133 | 1.0 | 7.0 | 0.00 | 0.00 | 0.00 | 79 | 1021.4 |
| 20260504184551 | 59 | 132 | 0.0 | 5.0 | 0.00 | 0.00 | 0.00 | 80 | 1021.4 |
| 20260504183050 | 58 | 132 | 0.0 | 3.0 | 0.00 | 0.00 | 0.00 | 80 | 1021.4 |
| 20260504181551 | 58 | 132 | 0.0 | 3.0 | 0.00 | 0.00 | 0.00 | 78 | 1021.4 |
| 20260504180050 | 58 | 132 | 0.0 | 3.0 | 0.00 | 0.00 | 0.00 | 78 | 1021.3 |
| 20260504174547 | 58 | 132 | 1.0 | 8.0 | 0.00 | 0.00 | 0.00 | 76 | 1021.2 |
| 20260504173046 | 58 | 132 | 2.0 | 7.0 | 0.00 | 0.00 | 0.00 | 76 | 1021.2 |
| 20260504171544 | 58 | 132 | 1.0 | 7.0 | 0.00 | 0.00 | 0.00 | 75 | 1021.1 |
| 20260504100108 | 54 | 161 | 0.0 | 2.0 | 0.00 | 0.00 | 0.00 | 81 | 1019.8 |
| 20260504081555 | 55 | 161 | 0.0 | 1.0 | 0.00 | 0.00 | 0.00 | 80 | 1019.8 |
| 20260504080111 | 55 | 161 | 0.0 | 0.0 | 0.00 | 0.00 | 0.00 | 80 | 1019.8 |
| 20260504044539 | 59 | 161 | 0.0 | 3.0 | 0.00 | 0.00 | 0.00 | 69 | 1019.0 |
| 20260504043036 | 59 | 161 | 2.0 | 7.0 | 0.00 | 0.00 | 0.00 | 68 | 1018.8 |
| 20260504041533 | 60 | 157 | 1.0 | 6.0 | 0.00 | 0.00 | 0.00 | 68 | 1018.8 |
| 20260504040056 | 60 | 157 | 1.0 | 6.0 | 0.00 | 0.00 | 0.00 | 68 | 1018.6 |
| 20260504034531 | 61 | 157 | 1.0 | 7.0 | 0.00 | 0.00 | 0.00 | 68 | 1018.3 |
| 20260504033033 | 61 | 154 | 2.0 | 8.0 | 0.00 | 0.00 | 0.00 | 67 | 1018.2 |
| 20260504031530 | 61 | 169 | 2.0 | 8.0 | 0.00 | 0.00 | 0.00 | 67 | 1018.1 |
| 20260504030029 | 62 | 168 | 1.0 | 6.0 | 0.00 | 0.00 | 0.00 | 67 | 1018.0 |
| 20260504024528 | 63 | 195 | 1.0 | 8.0 | 0.00 | 0.00 | 0.00 | 66 | 1017.7 |
| 20260504023028 | 63 | 194 | 2.0 | 9.0 | 0.00 | 0.00 | 0.00 | 65 | 1017.5 |
| 20260504021528 | 64 | 202 | 2.0 | 8.0 | 0.00 | 0.00 | 0.00 | 63 | 1017.4 |
| 20260504020029 | 64 | 198 | 1.0 | 5.0 | 0.00 | 0.00 | 0.00 | 62 | 1017.3 |
| 20260504014527 | 65 | 193 | 3.0 | 8.0 | 0.00 | 0.00 | 0.00 | 60 | 1017.4 |
| 20260504013026 | 65 | 195 | 3.0 | 10.0 | 0.00 | 0.00 | 0.00 | 59 | 1017.2 |
| 20260504011526 | 66 | 186 | 2.0 | 9.0 | 0.00 | 0.00 | 0.00 | 58 | 1017.2 |
| 20260504010025 | 66 | 182 | 3.0 | 9.0 | 0.00 | 0.00 | 0.00 | 58 | 1017.2 |
| 20260504004538 | 67 | 198 | 2.0 | 10.0 | 0.00 | 0.00 | 0.00 | 57 | 1017.1 |